START_TIME,STEP,MOV.,H8,t_acc.,H43,t_acc.,M25,t_acc.,H9,t_acc.
1979-08-07 18:00:27.980 ,0,1,0.,12.0,0.,12.0,0.,12.0,0.,12.0
1979-08-07 18:00:39.980 ,0,1,0.,12.0,0.,12.0,0.,12.0,0.,12.0
1979-08-07 18:00:51.980 ,4,1,0.,12.0,0.,12.0,0.,12.0,0.,12.0
1979-08-07 18:01:03.980 ,4,1,0.,12.0,0.,12.0,0.,12.0,0.,12.0
1979-08-07 18:01:15.980 ,7,1,0.,12.0,0.,12.0,0.,12.0,0.,12.0
1979-08-07 18:01:27.980 ,7,1,0.,12.0,0.,12.0,0.,12.0,0.,12.0
1979-08-07 18:01:39.970 ,3,1,0.,12.0,0.,12.0,0.,12.0,0.,12.0
1979-08-07 18:01:51.980 ,3,1,0.,12.0,0.,12.0,0.,12.0,0.,12.0
1979-08-07 18:02:03.970 ,0,1,0.,12.0,0.,12.0,0.,12.0,0.,12.0
1979-08-07 18:02:15.980 ,0,1,0.,12.0,0.,12.0,0.,12.0,0.,12.0
1979-08-07 18:02:27.980 ,4,1,0.,12.0,0.,12.0,0.,12.0,0.,12.0
1979-08-07 18:02:39.980 ,4,1,0.,12.0,0.,12.0,0.,12.0,0.,12.0
1979-08-07 18:02:51.980 ,7,1,0.,12.0,0.,12.0,0.,12.0,0.,12.0
1979-08-07 18:03:03.980 ,7,1,0.,12.0,0.,12.0,0.,12.0,0.,12.0
1979-08-07 18:03:15.980 ,3,1,0.,12.0,0.,12.0,0.,12.0,0.,12.0
1979-08-07 18:03:27.980 ,3,1,0.,12.0,0.,12.0,0.,12.0,0.,12.0
1979-08-07 18:03:39.980 ,0,1,0.,12.0,0.,12.0,0.,12.0,0.,12.0
1979-08-07 18:03:51.980 ,0,1,0.,12.0,0.,12.0,0.,12.0,0.,12.0
1979-08-07 18:04:03.970 ,4,1,0.,12.0,0.,12.0,0.,12.0,0.,12.0
1979-08-07 18:04:15.970 ,4,1,0.,12.0,0.,12.0,0.,12.0,0.,12.0
1979-08-07 18:04:27.970 ,7,1,0.,12.0,0.,12.0,0.,12.0,0.,12.0
1979-08-07 18:04:39.970 ,7,1,0.,12.0,0.,12.0,0.,12.0,0.,12.0
1979-08-07 18:04:51.970 ,3,1,0.,12.0,0.,12.0,0.,12.0,0.,12.0
1979-08-07 18:05:03.970 ,3,1,0.,12.0,0.,12.0,0.,12.0,0.,12.0
1979-08-07 18:05:15.970 ,0,1,0.,12.0,0.,12.0,0.,12.0,0.,12.0
1979-08-07 18:05:27.970 ,0,1,0.,12.0,0.,12.0,0.,12.0,0.,12.0
1979-08-07 18:05:39.970 ,0,0,0.,12.0,0.,12.0,0.,12.0,0.,12.0
1979-08-07 18:05:51.970 ,0,0,0.,12.0,0.,12.0,0.,12.0,0.,12.0
1979-08-07 18:06:03.970 ,0,0,0.,12.0,0.,12.0,0.,12.0,0.,12.0
1979-08-07 18:06:15.970 ,0,0,0.,12.0,0.,12.0,0.,12.0,0.,12.0
1979-08-07 18:06:27.970 ,5,0,0.,12.0,0.,12.0,0.,12.0,0.,12.0
1979-08-07 18:06:39.970 ,5,0,0.,12.0,0.,12.0,0.,12.0,0.,12.0
1979-08-07 18:06:51.970 ,5,0,0.,12.0,0.,12.0,0.,12.0,0.,12.0
1979-08-07 18:07:03.970 ,5,0,0.,12.0,0.,12.0,0.,12.0,0.,12.0
1979-08-07 18:07:15.970 ,4,0,0.,12.0,0.,12.0,0.,12.0,0.,12.0
1979-08-07 18:07:27.970 ,4,0,0.,12.0,0.,12.0,0.,12.0,0.,12.0
1979-08-07 18:07:39.970 ,4,0,0.,12.0,0.,12.0,0.,12.0,0.,12.0
1979-08-07 18:07:51.970 ,4,0,0.,12.0,0.,12.0,0.,12.0,0.,12.0
1979-08-07 18:08:03.970 ,3,0,0.,12.0,0.,12.0,0.,12.0,0.,12.0
1979-08-07 18:08:15.970 ,3,0,0.,12.0,0.,12.0,0.,12.0,0.,12.0
1979-08-07 18:08:27.970 ,3,0,0.,12.0,0.,12.0,0.,12.0,0.,12.0
1979-08-07 18:08:39.970 ,3,0,0.,12.0,0.,12.0,0.,12.0,0.,12.0
1979-08-07 18:08:51.970 ,2,0,0.,12.0,0.,12.0,0.,12.0,0.,12.0
1979-08-07 18:09:03.970 ,2,0,0.,12.0,0.,12.0,0.,12.0,0.,12.0
1979-08-07 18:09:15.970 ,2,0,0.,12.0,0.,12.0,0.,12.0,0.,12.0
1979-08-07 18:09:27.970 ,2,0,0.,12.0,0.,12.0,0.,12.0,0.,12.0
1979-08-07 18:09:39.970 ,1,0,0.,12.0,0.,12.0,0.,12.0,0.,12.0
1979-08-07 18:09:51.970 ,1,0,0.,12.0,0.,12.0,0.,12.0,0.,12.0
1979-08-07 18:10:03.970 ,1,0,0.,12.0,0.,12.0,0.,12.0,0.,12.0
1979-08-07 18:10:15.970 ,1,0,0.,12.0,0.,12.0,0.,12.0,0.,12.0
1979-08-07 18:10:27.970 ,0,0,0.,12.0,0.,12.0,0.,12.0,0.,12.0
1979-08-07 18:10:39.970 ,0,0,0.,12.0,0.,12.0,0.,12.0,0.,12.0
1979-08-07 18:10:51.970 ,0,0,0.,12.0,0.,12.0,0.,12.0,0.,12.0
1979-08-07 18:11:03.970 ,0,0,0.,12.0,0.,12.0,0.,12.0,0.,12.0
1979-08-07 18:11:15.970 ,0,0,0.,12.0,0.,12.0,0.,12.0,0.,12.0
1979-08-07 18:11:27.970 ,0,0,0.,12.0,0.,12.0,0.,12.0,0.,12.0
1979-08-07 18:11:39.970 ,0,0,0.,12.0,0.,12.0,0.,12.0,0.,12.0
1979-08-07 18:11:51.970 ,0,0,0.,12.0,0.,12.0,0.,12.0,0.,12.0
1979-08-07 18:12:03.970 ,1,0,0.,12.0,0.,12.0,0.,12.0,0.,12.0
1979-08-07 18:12:15.970 ,1,0,0.,12.0,0.,12.0,0.,12.0,0.,12.0
1979-08-07 18:12:27.970 ,1,0,0.,12.0,0.,12.0,0.,12.0,0.,12.0
1979-08-07 18:12:39.970 ,1,0,0.,12.0,0.,12.0,0.,12.0,0.,12.0
1979-08-07 18:12:51.970 ,2,0,0.,12.0,0.,12.0,0.,12.0,0.,12.0
1979-08-07 18:13:03.970 ,2,0,0.,12.0,0.,12.0,0.,12.0,0.,12.0
1979-08-07 18:13:15.970 ,2,0,0.,12.0,0.,12.0,0.,12.0,0.,12.0
1979-08-07 18:13:27.970 ,2,0,0.,12.0,0.,12.0,0.,12.0,0.,12.0
1979-08-07 18:13:39.970 ,3,0,0.,12.0,0.,12.0,0.,12.0,0.,12.0
1979-08-07 18:13:51.970 ,3,0,0.,12.0,0.,12.0,0.,12.0,0.,12.0
1979-08-07 18:14:03.970 ,3,0,0.,12.0,0.,12.0,0.,12.0,0.,12.0
1979-08-07 18:14:15.970 ,3,0,0.,12.0,0.,12.0,0.,12.0,0.,12.0
1979-08-07 18:14:27.970 ,4,0,0.,12.0,0.,12.0,0.,12.0,0.,12.0
1979-08-07 18:14:39.970 ,4,0,0.,12.0,0.,12.0,0.,12.0,0.,12.0
1979-08-07 18:14:51.970 ,4,0,0.,12.0,0.,12.0,0.,12.0,0.,12.0
1979-08-07 18:15:03.970 ,4,0,0.,12.0,0.,12.0,0.,12.0,0.,12.0
1979-08-07 18:15:15.970 ,5,0,0.,12.0,0.,12.0,0.,12.0,0.,12.0
1979-08-07 18:15:27.970 ,5,0,0.,12.0,0.,12.0,0.,12.0,0.,12.0
1979-08-07 18:15:39.970 ,5,0,0.,12.0,0.,12.0,0.,12.0,0.,12.0
1979-08-07 18:15:51.970 ,5,0,0.,12.0,0.,12.0,0.,12.0,0.,12.0
1979-08-07 18:16:03.970 ,6,0,0.,12.0,0.,12.0,0.,12.0,0.,12.0
1979-08-07 18:16:15.970 ,6,0,0.,12.0,0.,12.0,0.,12.0,0.,12.0
1979-08-07 18:16:27.970 ,6,0,0.,12.0,0.,12.0,0.,12.0,0.,12.0
1979-08-07 18:16:39.970 ,6,0,0.,12.0,0.,12.0,0.,12.0,0.,12.0
1979-08-07 18:16:51.970 ,7,0,0.,12.0,0.,12.0,0.,12.0,0.,12.0
1979-08-07 18:17:03.970 ,7,0,0.,12.0,0.,12.0,0.,12.0,0.,12.0
1979-08-07 18:17:15.970 ,7,0,0.,12.0,0.,12.0,0.,12.0,0.,12.0
1979-08-07 18:17:27.970 ,7,0,0.,12.0,0.,12.0,0.,12.0,0.,12.0
1979-08-07 18:17:39.970 ,7,0,0.,12.0,0.,12.0,0.,12.0,0.,12.0
1979-08-07 18:17:51.970 ,7,0,0.,12.0,0.,12.0,0.,12.0,0.,12.0
1979-08-07 18:18:03.970 ,7,0,0.,12.0,0.,12.0,0.,12.0,0.,12.0
1979-08-07 18:18:15.970 ,7,0,0.,12.0,0.,12.0,0.,12.0,0.,12.0
1979-08-07 18:18:27.970 ,6,0,0.,12.0,0.,12.0,0.,12.0,0.,12.0
1979-08-07 18:18:39.970 ,6,0,0.,12.0,0.,12.0,0.,12.0,0.,12.0
1979-08-07 18:18:51.970 ,6,0,0.,12.0,0.,12.0,0.,12.0,0.,12.0
1979-08-07 18:19:03.970 ,6,0,0.,12.0,0.,12.0,0.,12.0,0.,12.0
1979-08-07 18:19:15.970 ,5,0,0.,12.0,0.,12.0,0.,12.0,0.,12.0
1979-08-07 18:19:27.970 ,5,0,0.,12.0,0.,12.0,0.,12.0,0.,12.0
1979-08-07 18:19:39.970 ,0,0,0.,12.0,0.,12.0,0.,12.0,0.,12.0
1979-08-07 18:19:51.970 ,0,0,0.,12.0,0.,12.0,0.,12.0,0.,12.0
1979-08-07 18:20:51.970 ,0,0,0.,12.0,0.,12.0,0.,12.0,0.,12.0
1979-08-07 18:21:03.970 ,0,0,0.,12.0,0.,12.0,0.,12.0,0.,12.0
1979-08-07 18:21:15.970 ,0,0,0.,12.0,0.,12.0,0.,12.0,0.,12.0
1979-08-07 18:21:27.970 ,0,0,0.,12.0,0.,12.0,0.,12.0,0.,12.0
1979-08-07 18:21:39.970 ,2,0,0.,12.0,0.,12.0,0.,12.0,0.,12.0
1979-08-07 18:21:51.970 ,2,0,0.,12.0,0.,12.0,0.,12.0,0.,12.0
1979-08-07 18:22:03.970 ,2,0,0.,12.0,0.,12.0,0.,12.0,0.,12.0
1979-08-07 18:22:15.970 ,2,0,0.,12.0,0.,12.0,0.,12.0,0.,12.0
1979-08-07 18:23:15.970 ,0,0,0.,12.0,0.,12.0,0.,12.0,0.,12.0
1979-08-07 18:23:27.970 ,0,0,0.,12.0,0.,12.0,0.,12.0,0.,12.0
1979-08-07 18:23:39.970 ,0,0,0.,12.0,0.,12.0,0.,12.0,0.,12.0
1979-08-07 18:23:51.970 ,0,0,0.,12.0,0.,12.0,0.,12.0,0.,12.0
1979-08-07 18:24:03.970 ,0,0,0.,12.0,0.,12.0,0.,12.0,0.,12.0
1979-08-07 18:24:15.970 ,0,0,0.,12.0,0.,12.0,0.,12.0,0.,12.0
1979-08-07 18:24:27.970 ,0,0,0.,12.0,0.,12.0,0.,12.0,0.,12.0
1979-08-07 18:24:39.970 ,0,0,0.,12.0,0.,12.0,0.,12.0,0.,12.0
1979-08-07 18:30:27.970 ,0,0,0.,12.0,0.,12.0,0.,12.0,0.,12.0
1979-08-07 18:30:39.970 ,0,0,0.,12.0,0.,12.0,0.,12.0,0.,12.0
1979-08-07 18:30:51.970 ,0,0,0.,12.0,0.,12.0,0.,12.0,0.,12.0
1979-08-07 18:31:03.970 ,0,0,0.,12.0,0.,12.0,0.,12.0,0.,12.0
1979-08-07 18:32:03.970 ,0,0,0.,12.0,0.,12.0,0.,12.0,0.,12.0
1979-08-07 18:32:15.970 ,0,0,0.,12.0,0.,12.0,0.,12.0,0.,12.0
1979-08-07 18:32:27.970 ,0,0,0.,12.0,0.,12.0,0.,12.0,0.,12.0
1979-08-07 18:32:39.970 ,0,0,0.,12.0,0.,12.0,0.,12.0,0.,12.0
1979-08-07 18:34:27.970 ,0,0,0.,12.0,0.,12.0,0.,12.0,0.,12.0
1979-08-07 18:34:39.970 ,0,0,0.,12.0,0.,12.0,0.,12.0,0.,12.0
1979-08-07 18:34:51.970 ,0,0,0.,12.0,0.,12.0,0.,12.0,0.,12.0
1979-08-07 18:35:03.970 ,0,0,0.,12.0,0.,12.0,0.,12.0,0.,12.0
1979-08-07 18:35:15.970 ,1,0,0.,12.0,0.,12.0,0.,12.0,0.,12.0
1979-08-07 18:35:27.970 ,1,0,0.,12.0,0.,12.0,0.,12.0,0.,12.0
1979-08-07 18:35:39.970 ,1,0,0.,12.0,0.,12.0,0.,12.0,0.,12.0
1979-08-07 18:35:51.970 ,1,0,0.,12.0,0.,12.0,0.,12.0,0.,12.0
1979-08-07 18:36:51.970 ,0,0,0.,12.0,0.,12.0,0.,12.0,0.,12.0
1979-08-07 18:37:03.970 ,0,0,0.,12.0,0.,12.0,0.,12.0,0.,12.0
1979-08-07 18:37:15.970 ,0,0,0.,12.0,0.,12.0,0.,12.0,0.,12.0
1979-08-07 18:37:27.970 ,0,0,0.,12.0,0.,12.0,0.,12.0,0.,12.0
1979-08-07 18:38:27.970 ,0,0,0.,12.0,0.,12.0,0.,12.0,0.,12.0
1979-08-07 18:38:39.970 ,0,0,0.,12.0,0.,12.0,0.,12.0,0.,12.0
1979-08-07 18:38:51.970 ,0,0,0.,12.0,0.,12.0,0.,12.0,0.,12.0
1979-08-07 18:39:03.970 ,0,0,0.,12.0,0.,12.0,0.,12.0,0.,12.0
1979-08-07 18:38:51.970 ,0,0,0.,12.0,0.,12.0,0.,12.0,0.,12.0
1979-08-07 18:39:03.970 ,0,0,0.,12.0,0.,12.0,0.,12.0,0.,12.0
1979-08-07 18:46:27.970 ,0,0,0.,12.0,0.,12.0,0.,12.0,0.,12.0
1979-08-07 18:46:39.970 ,0,0,0.,12.0,0.,12.0,0.,12.0,0.,12.0
1979-08-07 18:46:51.970 ,0,1,0.,12.0,0.,12.0,0.,12.0,0.,12.0
1979-08-07 18:47:03.970 ,0,1,0.,12.0,0.,12.0,0.,12.0,0.,12.0
1979-08-07 18:47:15.970 ,4,1,0.,12.0,0.,12.0,0.,12.0,0.,12.0
1979-08-07 18:47:27.970 ,4,1,0.,12.0,0.,12.0,0.,12.0,0.,12.0
1979-08-07 18:47:39.970 ,7,1,1.,12.0,0.,12.0,0.,12.0,0.,12.0
1979-08-07 18:47:51.970 ,7,1,0.,12.0,0.,12.0,0.,12.0,0.,12.0
1979-08-07 18:51:15.970 ,0,0,0.,12.0,0.,12.0,0.,12.0,0.,12.0
1979-08-07 18:51:27.970 ,0,0,0.,12.0,0.,12.0,0.,12.0,0.,12.0
1979-08-07 18:51:39.970 ,0,1,0.,12.0,0.,12.0,0.,12.0,0.,12.0
1979-08-07 18:51:51.970 ,0,1,0.,12.0,0.,12.0,0.,12.0,0.,12.0
1979-08-07 18:52:03.970 ,4,1,0.,12.0,0.,12.0,0.,12.0,0.,12.0
1979-08-07 18:52:15.970 ,4,1,0.,12.0,0.,12.0,0.,12.0,0.,12.0
1979-08-07 18:52:27.970 ,7,1,0.,12.0,0.,12.0,0.,12.0,0.,12.0
1979-08-07 18:52:39.970 ,7,1,0.,12.0,0.,12.0,0.,12.0,0.,12.0
1979-08-07 18:52:51.970 ,3,1,0.,12.0,0.,12.0,0.,12.0,0.,12.0
1979-08-07 18:53:03.970 ,3,1,0.,12.0,0.,12.0,0.,12.0,0.,12.0
1979-08-07 18:53:15.970 ,0,1,0.,12.0,0.,12.0,0.,12.0,0.,12.0
1979-08-07 18:53:27.970 ,0,1,0.,12.0,0.,12.0,0.,12.0,0.,12.0
1979-08-07 18:53:39.970 ,0,0,0.,12.0,0.,12.0,0.,12.0,0.,12.0
1979-08-07 18:53:51.970 ,0,0,0.,12.0,0.,12.0,0.,12.0,0.,12.0
1979-08-07 18:54:03.970 ,0,0,0.,12.0,0.,12.0,0.,12.0,0.,12.0
1979-08-07 18:54:15.970 ,0,0,0.,12.0,0.,12.0,0.,12.0,0.,12.0
1979-08-07 18:54:27.970 ,5,0,0.,12.0,0.,12.0,0.,12.0,0.,12.0
1979-08-07 18:54:39.970 ,5,0,0.,12.0,0.,12.0,0.,12.0,0.,12.0
1979-08-07 18:54:51.970 ,5,0,0.,12.0,0.,12.0,0.,12.0,0.,12.0
1979-08-07 18:55:03.970 ,5,0,0.,12.0,0.,12.0,0.,12.0,0.,12.0
1979-08-07 18:55:15.970 ,4,0,0.,12.0,0.,12.0,0.,12.0,0.,12.0
1979-08-07 18:55:27.970 ,4,0,0.,12.0,0.,12.0,0.,12.0,0.,12.0
1979-08-07 18:55:39.970 ,4,0,0.,12.0,0.,12.0,0.,12.0,0.,12.0
1979-08-07 18:55:51.970 ,4,0,0.,12.0,0.,12.0,0.,12.0,0.,12.0
1979-08-07 18:56:03.970 ,3,0,0.,12.0,0.,12.0,0.,12.0,0.,12.0
1979-08-07 18:56:15.970 ,3,0,0.,12.0,0.,12.0,0.,12.0,0.,12.0
1979-08-07 18:56:27.970 ,3,0,0.,12.0,0.,12.0,0.,12.0,0.,12.0
1979-08-07 18:56:39.970 ,3,0,0.,12.0,0.,12.0,0.,12.0,0.,12.0
1979-08-07 18:56:51.970 ,2,0,0.,12.0,0.,12.0,0.,12.0,0.,12.0
1979-08-07 18:57:03.970 ,2,0,0.,12.0,0.,12.0,0.,12.0,0.,12.0
1979-08-07 18:57:15.970 ,2,0,0.,12.0,0.,12.0,0.,12.0,0.,12.0
1979-08-07 18:57:27.970 ,2,0,0.,12.0,0.,12.0,0.,12.0,0.,12.0
1979-08-07 18:57:39.970 ,1,0,0.,12.0,0.,12.0,0.,12.0,0.,12.0
1979-08-07 18:57:51.970 ,1,0,0.,12.0,0.,12.0,0.,12.0,0.,12.0
1979-08-07 18:58:03.970 ,1,0,0.,12.0,0.,12.0,0.,12.0,0.,12.0
1979-08-07 18:58:15.970 ,1,0,0.,12.0,0.,12.0,0.,12.0,0.,12.0
1979-08-07 18:58:27.970 ,0,0,0.,12.0,0.,12.0,0.,12.0,0.,12.0
1979-08-07 18:58:39.970 ,0,0,0.,12.0,0.,12.0,0.,12.0,0.,12.0
1979-08-07 18:58:51.970 ,0,0,0.,12.0,0.,12.0,0.,12.0,0.,12.0
1979-08-07 18:59:03.970 ,0,0,0.,12.0,0.,12.0,0.,12.0,0.,12.0
1979-08-07 18:59:15.970 ,0,0,0.,12.0,0.,12.0,0.,12.0,0.,12.0
1979-08-07 18:59:27.970 ,0,0,0.,12.0,0.,12.0,0.,12.0,0.,12.0
1979-08-07 18:59:39.970 ,0,0,0.,12.0,0.,12.0,0.,12.0,0.,12.0
1979-08-07 18:59:51.970 ,0,0,0.,12.0,0.,12.0,0.,12.0,0.,12.0
1979-08-07 19:02:27.970 ,0,0,0.,12.0,0.,12.0,0.,12.0,0.,12.0
1979-08-07 19:02:39.970 ,0,0,0.,12.0,0.,12.0,0.,12.0,0.,12.0
1979-08-07 19:02:51.970 ,0,0,0.,12.0,0.,12.0,0.,12.0,0.,12.0
1979-08-07 19:03:03.970 ,0,0,0.,12.0,0.,12.0,0.,12.0,0.,12.0
1979-08-07 19:07:15.970 ,0,0,0.,12.0,0.,12.0,0.,12.0,0.,12.0
1979-08-07 19:07:27.970 ,0,0,0.,12.0,0.,12.0,57344.,12.0,54272.,12.0
1979-08-07 19:07:39.970 ,0,0,0.,12.0,0.,12.0,0.,12.0,0.,12.0
1979-08-07 19:07:51.970 ,0,0,0.,12.0,0.,12.0,0.,12.0,0.,12.0
1979-08-07 19:07:39.970 ,0,0,0.,12.0,0.,12.0,0.,12.0,0.,12.0
1979-08-07 19:07:51.970 ,0,0,0.,12.0,0.,12.0,0.,12.0,0.,12.0
1979-08-07 19:08:03.970 ,4,0,0.,12.0,0.,12.0,0.,12.0,0.,12.0
1979-08-07 19:08:15.970 ,4,0,0.,12.0,0.,12.0,0.,12.0,0.,12.0
1979-08-07 19:08:27.970 ,4,0,0.,12.0,0.,12.0,0.,12.0,0.,12.0
1979-08-07 19:08:39.970 ,4,0,0.,12.0,0.,12.0,0.,12.0,0.,12.0
1979-08-07 19:08:51.970 ,3,0,0.,12.0,0.,12.0,0.,12.0,0.,12.0
1979-08-07 19:09:03.970 ,3,0,0.,12.0,0.,12.0,0.,12.0,0.,12.0
1979-08-07 19:09:15.970 ,3,0,0.,12.0,0.,12.0,0.,12.0,0.,12.0
1979-08-07 19:09:27.970 ,3,0,0.,12.0,0.,12.0,0.,12.0,0.,12.0
1979-08-07 19:09:39.970 ,2,0,0.,12.0,0.,12.0,0.,12.0,0.,12.0
1979-08-07 19:09:51.970 ,2,0,0.,12.0,0.,12.0,0.,12.0,0.,12.0
1979-08-07 19:10:03.970 ,2,0,0.,12.0,0.,12.0,0.,12.0,0.,12.0
1979-08-07 19:10:15.970 ,2,0,0.,12.0,0.,12.0,0.,12.0,0.,12.0
1979-08-07 19:11:15.970 ,0,0,0.,12.0,0.,12.0,0.,12.0,0.,12.0
1979-08-07 19:11:27.970 ,0,0,0.,12.0,0.,12.0,0.,12.0,0.,12.0
1979-08-07 19:11:39.970 ,0,0,0.,12.0,0.,12.0,0.,12.0,0.,12.0
1979-08-07 19:11:51.970 ,0,0,0.,12.0,0.,12.0,0.,12.0,0.,12.0
1979-08-07 19:12:03.970 ,0,0,0.,12.0,0.,12.0,0.,12.0,0.,12.0
1979-08-07 19:12:15.970 ,0,0,0.,12.0,0.,12.0,0.,12.0,0.,12.0
1979-08-07 19:12:27.970 ,0,0,0.,12.0,0.,12.0,0.,12.0,0.,12.0
1979-08-07 19:12:39.970 ,0,0,0.,12.0,0.,12.0,0.,12.0,0.,12.0
1979-08-07 19:13:39.970 ,0,0,0.,12.0,0.,12.0,0.,12.0,0.,12.0
1979-08-07 19:13:51.970 ,0,0,0.,12.0,0.,12.0,0.,12.0,0.,12.0
1979-08-07 19:14:03.970 ,0,0,0.,12.0,0.,12.0,0.,12.0,0.,12.0
1979-08-07 19:14:15.970 ,0,0,0.,12.0,0.,12.0,0.,12.0,0.,12.0
1979-08-07 19:14:27.970 ,3,0,0.,12.0,0.,12.0,0.,12.0,0.,12.0
1979-08-07 19:14:39.970 ,3,0,0.,12.0,0.,12.0,0.,12.0,0.,12.0
1979-08-07 19:14:51.970 ,3,0,0.,12.0,0.,12.0,0.,12.0,0.,12.0
1979-08-07 19:15:03.970 ,3,0,0.,12.0,0.,12.0,0.,12.0,0.,12.0
1979-08-07 19:15:15.970 ,4,0,0.,12.0,0.,12.0,0.,12.0,0.,12.0
1979-08-07 19:15:27.970 ,4,0,0.,12.0,0.,12.0,0.,12.0,0.,12.0
1979-08-07 19:15:39.970 ,4,0,0.,12.0,0.,12.0,0.,12.0,0.,12.0
1979-08-07 19:15:51.970 ,4,0,0.,12.0,0.,12.0,0.,12.0,0.,12.0
1979-08-07 19:16:03.970 ,5,0,0.,12.0,0.,12.0,0.,12.0,0.,12.0
1979-08-07 19:16:15.970 ,5,0,0.,12.0,0.,12.0,0.,12.0,0.,12.0
1979-08-07 19:16:27.970 ,5,0,0.,12.0,0.,12.0,0.,12.0,0.,12.0
1979-08-07 19:16:39.970 ,5,0,0.,12.0,0.,12.0,0.,12.0,0.,12.0
1979-08-07 19:16:51.970 ,6,0,0.,12.0,0.,12.0,0.,12.0,0.,12.0
1979-08-07 19:17:03.970 ,6,0,0.,12.0,0.,12.0,0.,12.0,0.,12.0
1979-08-07 19:17:15.970 ,6,0,0.,12.0,0.,12.0,0.,12.0,0.,12.0
1979-08-07 19:17:27.970 ,6,0,0.,12.0,0.,12.0,0.,12.0,0.,12.0
1979-08-07 19:17:39.970 ,7,0,0.,12.0,0.,12.0,0.,12.0,0.,12.0
1979-08-07 19:17:51.970 ,7,0,0.,12.0,0.,12.0,0.,12.0,0.,12.0
1979-08-07 19:18:03.970 ,7,0,0.,12.0,0.,12.0,0.,12.0,0.,12.0
1979-08-07 19:18:15.970 ,7,0,0.,12.0,0.,12.0,0.,12.0,0.,12.0
1979-08-07 19:18:27.970 ,7,0,0.,12.0,0.,12.0,0.,12.0,0.,12.0
1979-08-07 19:18:39.970 ,7,0,0.,12.0,0.,12.0,0.,12.0,0.,12.0
1979-08-07 19:18:51.970 ,7,0,0.,12.0,0.,12.0,0.,12.0,0.,12.0
1979-08-07 19:19:03.970 ,7,0,0.,12.0,0.,12.0,0.,12.0,0.,12.0
1979-08-07 19:19:15.970 ,6,0,0.,12.0,0.,12.0,0.,12.0,0.,12.0
1979-08-07 19:19:27.970 ,6,0,0.,12.0,0.,12.0,0.,12.0,0.,12.0
1979-08-07 19:19:39.970 ,6,0,0.,12.0,0.,12.0,0.,12.0,0.,12.0
1979-08-07 19:19:51.970 ,6,0,0.,12.0,0.,12.0,0.,12.0,0.,12.0
1979-08-07 19:20:03.970 ,5,0,0.,12.0,0.,12.0,0.,12.0,0.,12.0
1979-08-07 19:20:15.970 ,5,0,0.,12.0,0.,12.0,0.,12.0,0.,12.0
1979-08-07 19:20:27.970 ,5,0,0.,12.0,0.,12.0,0.,12.0,0.,12.0
1979-08-07 19:20:39.970 ,5,0,0.,12.0,0.,12.0,0.,12.0,0.,12.0
1979-08-07 19:21:39.970 ,0,0,0.,12.0,0.,12.0,0.,12.0,0.,12.0
1979-08-07 19:21:51.970 ,0,0,0.,12.0,0.,12.0,0.,12.0,0.,12.0
1979-08-07 19:22:03.970 ,0,0,0.,12.0,0.,12.0,0.,12.0,0.,12.0
1979-08-07 19:22:15.970 ,0,0,0.,12.0,0.,12.0,0.,12.0,0.,12.0
1979-08-07 19:22:27.970 ,2,0,0.,12.0,0.,12.0,0.,12.0,0.,12.0
1979-08-07 19:22:39.970 ,2,0,0.,12.0,0.,12.0,0.,12.0,0.,12.0
1979-08-07 19:22:51.970 ,2,0,0.,12.0,0.,12.0,0.,12.0,0.,12.0
1979-08-07 19:23:03.970 ,2,0,0.,12.0,0.,12.0,0.,12.0,0.,12.0
1979-08-07 19:24:51.970 ,0,0,0.,12.0,0.,12.0,0.,12.0,0.,12.0
1979-08-07 19:25:03.970 ,0,0,0.,12.0,0.,12.0,0.,12.0,0.,12.0
1979-08-07 19:25:15.970 ,0,0,0.,12.0,2097152.,12.0,2162688.,12.0,8448.,12.0
1979-08-07 19:25:27.970 ,0,0,17.,12.0,33.,12.0,7296.,12.0,14592.,12.0
1979-08-07 19:25:15.970 ,0,0,0.,12.0,0.,12.0,0.,12.0,0.,12.0
1979-08-07 19:25:27.970 ,0,0,0.,12.0,0.,12.0,0.,12.0,0.,12.0
1979-08-07 19:25:15.970 ,0,0,0.,12.0,0.,12.0,0.,12.0,0.,12.0
1979-08-07 19:25:27.970 ,0,0,0.,12.0,0.,12.0,0.,12.0,0.,12.0
1979-08-07 19:25:39.970 ,1,0,0.,12.0,0.,12.0,0.,12.0,0.,12.0
1979-08-07 19:25:51.970 ,1,0,0.,12.0,0.,12.0,0.,12.0,0.,12.0
1979-08-07 19:26:03.970 ,1,0,0.,12.0,0.,12.0,0.,12.0,0.,12.0
1979-08-07 19:26:15.970 ,1,0,0.,12.0,0.,12.0,0.,12.0,0.,12.0
1979-08-07 19:26:27.970 ,2,0,0.,12.0,0.,12.0,0.,12.0,0.,12.0
1979-08-07 19:26:39.970 ,2,0,0.,12.0,0.,12.0,0.,12.0,0.,12.0
1979-08-07 19:26:51.970 ,2,0,0.,12.0,0.,12.0,0.,12.0,0.,12.0
1979-08-07 19:27:03.970 ,2,0,0.,12.0,0.,12.0,0.,12.0,0.,12.0
1979-08-07 19:27:15.970 ,3,0,0.,12.0,0.,12.0,0.,12.0,0.,12.0
1979-08-07 19:27:27.970 ,3,0,0.,12.0,0.,12.0,0.,12.0,0.,12.0
1979-08-07 19:27:39.970 ,3,0,0.,12.0,0.,12.0,0.,12.0,0.,12.0
1979-08-07 19:27:51.970 ,3,0,0.,12.0,0.,12.0,0.,12.0,0.,12.0
1979-08-07 19:28:03.970 ,4,0,0.,12.0,0.,12.0,0.,12.0,0.,12.0
1979-08-07 19:28:15.970 ,4,0,0.,12.0,0.,12.0,0.,12.0,0.,12.0
1979-08-07 19:28:27.970 ,4,0,0.,12.0,0.,12.0,0.,12.0,0.,12.0
1979-08-07 19:28:39.970 ,4,0,0.,12.0,0.,12.0,0.,12.0,0.,12.0
1979-08-07 19:28:51.970 ,5,0,0.,12.0,0.,12.0,0.,12.0,0.,12.0
1979-08-07 19:29:03.970 ,5,0,0.,12.0,0.,12.0,0.,12.0,0.,12.0
1979-08-07 19:29:15.970 ,5,0,0.,12.0,0.,12.0,0.,12.0,0.,12.0
1979-08-07 19:29:27.970 ,5,0,0.,12.0,0.,12.0,0.,12.0,0.,12.0
1979-08-07 19:31:15.970 ,0,0,0.,12.0,0.,12.0,0.,12.0,0.,12.0
1979-08-07 19:31:27.970 ,0,0,0.,12.0,0.,12.0,0.,12.0,0.,12.0
1979-08-07 19:31:39.970 ,0,1,0.,12.0,0.,12.0,0.,12.0,0.,12.0
1979-08-07 19:31:51.970 ,0,1,0.,12.0,0.,12.0,0.,12.0,0.,12.0
1979-08-07 19:32:03.970 ,4,1,0.,12.0,0.,12.0,0.,12.0,0.,12.0
1979-08-07 19:32:15.970 ,4,1,0.,12.0,0.,12.0,0.,12.0,0.,12.0
1979-08-07 19:32:27.970 ,7,1,0.,12.0,0.,12.0,0.,12.0,0.,12.0
1979-08-07 19:32:39.970 ,7,1,0.,12.0,0.,12.0,0.,12.0,0.,12.0
1979-08-07 19:32:51.970 ,3,1,0.,12.0,0.,12.0,0.,12.0,0.,12.0
1979-08-07 19:33:03.970 ,3,1,0.,12.0,0.,12.0,0.,12.0,0.,12.0
1979-08-07 19:33:15.970 ,0,1,0.,12.0,0.,12.0,0.,12.0,0.,12.0
1979-08-07 19:33:27.970 ,0,1,0.,12.0,0.,12.0,0.,12.0,0.,12.0
1979-08-07 19:33:39.970 ,4,1,0.,12.0,0.,12.0,0.,12.0,0.,12.0
1979-08-07 19:33:51.970 ,4,1,0.,12.0,0.,12.0,0.,12.0,0.,12.0
1979-08-07 19:34:03.970 ,7,1,0.,12.0,0.,12.0,0.,12.0,0.,12.0
1979-08-07 19:34:15.970 ,7,1,0.,12.0,0.,12.0,0.,12.0,0.,12.0
1979-08-07 19:34:27.970 ,3,1,0.,12.0,0.,12.0,0.,12.0,0.,12.0
1979-08-07 19:34:39.970 ,3,1,0.,12.0,0.,12.0,0.,12.0,0.,12.0
1979-08-07 19:34:51.970 ,0,1,0.,12.0,0.,12.0,0.,12.0,0.,12.0
1979-08-07 19:35:03.970 ,0,1,0.,12.0,0.,12.0,0.,12.0,0.,12.0
1979-08-07 19:35:15.970 ,4,1,0.,12.0,0.,12.0,0.,12.0,0.,12.0
1979-08-07 19:35:27.970 ,4,1,0.,12.0,0.,12.0,0.,12.0,0.,12.0
1979-08-07 19:35:39.970 ,7,1,0.,12.0,0.,12.0,0.,12.0,0.,12.0
1979-08-07 19:35:51.970 ,7,1,0.,12.0,0.,12.0,0.,12.0,0.,12.0
1979-08-07 19:36:03.970 ,3,1,0.,12.0,0.,12.0,0.,12.0,0.,12.0
1979-08-07 19:36:15.970 ,3,1,0.,12.0,0.,12.0,0.,12.0,0.,12.0
1979-08-07 19:36:27.970 ,0,1,0.,12.0,0.,12.0,0.,12.0,0.,12.0
1979-08-07 19:36:39.970 ,0,1,0.,12.0,0.,12.0,0.,12.0,0.,12.0
1979-08-07 19:36:51.970 ,4,1,0.,12.0,0.,12.0,0.,12.0,0.,12.0
1979-08-07 19:37:03.970 ,4,1,0.,12.0,0.,12.0,0.,12.0,0.,12.0
1979-08-07 19:37:15.970 ,7,1,0.,12.0,0.,12.0,0.,12.0,0.,12.0
1979-08-07 19:37:27.970 ,7,1,0.,12.0,0.,12.0,0.,12.0,0.,12.0
1979-08-07 19:37:39.970 ,3,1,0.,12.0,0.,12.0,0.,12.0,0.,12.0
1979-08-07 19:37:51.970 ,3,1,0.,12.0,0.,12.0,0.,12.0,0.,12.0
1979-08-07 19:38:03.970 ,0,1,0.,12.0,0.,12.0,0.,12.0,0.,12.0
1979-08-07 19:38:15.970 ,0,1,0.,12.0,0.,12.0,0.,12.0,0.,12.0
1979-08-07 19:38:27.970 ,4,1,0.,12.0,0.,12.0,0.,12.0,0.,12.0
1979-08-07 19:38:39.970 ,4,1,0.,12.0,0.,12.0,0.,12.0,0.,12.0
1979-08-07 19:38:51.970 ,7,1,0.,12.0,0.,12.0,0.,12.0,0.,12.0
1979-08-07 19:39:03.970 ,7,1,0.,12.0,0.,12.0,0.,12.0,0.,12.0
1979-08-07 19:39:15.970 ,3,1,0.,12.0,0.,12.0,0.,12.0,0.,12.0
1979-08-07 19:39:27.970 ,3,1,0.,12.0,0.,12.0,0.,12.0,0.,12.0
1979-08-07 19:39:39.970 ,0,1,0.,12.0,0.,12.0,0.,12.0,0.,12.0
1979-08-07 19:39:51.970 ,0,1,0.,12.0,0.,12.0,0.,12.0,0.,12.0
1979-08-07 19:40:03.970 ,4,1,0.,12.0,0.,12.0,0.,12.0,0.,12.0
1979-08-07 19:40:15.970 ,4,1,0.,12.0,0.,12.0,0.,12.0,0.,12.0
1979-08-07 19:40:27.970 ,7,1,0.,12.0,0.,12.0,0.,12.0,0.,12.0
1979-08-07 19:40:39.970 ,7,1,0.,12.0,0.,12.0,0.,12.0,0.,12.0
1979-08-07 19:40:51.970 ,3,1,0.,12.0,0.,12.0,0.,12.0,0.,12.0
1979-08-07 19:41:03.970 ,3,1,0.,12.0,0.,12.0,0.,12.0,0.,12.0
1979-08-07 19:41:15.970 ,0,1,0.,12.0,0.,12.0,0.,12.0,0.,12.0
1979-08-07 19:41:27.970 ,0,1,0.,12.0,0.,12.0,0.,12.0,0.,12.0
1979-08-07 19:41:39.970 ,0,0,0.,12.0,0.,12.0,0.,12.0,0.,12.0
1979-08-07 19:41:51.970 ,0,0,0.,12.0,0.,12.0,0.,12.0,0.,12.0
1979-08-07 19:42:03.970 ,0,0,0.,12.0,0.,12.0,0.,12.0,0.,12.0
1979-08-07 19:42:15.970 ,0,0,0.,12.0,0.,12.0,0.,12.0,0.,12.0
1979-08-07 19:42:27.970 ,5,0,0.,12.0,0.,12.0,0.,12.0,0.,12.0
1979-08-07 19:42:39.970 ,5,0,0.,12.0,0.,12.0,0.,12.0,0.,12.0
1979-08-07 19:42:51.970 ,5,0,0.,12.0,0.,12.0,0.,12.0,0.,12.0
1979-08-07 19:43:03.970 ,5,0,0.,12.0,0.,12.0,0.,12.0,0.,12.0
1979-08-07 19:43:15.970 ,4,0,0.,12.0,0.,12.0,0.,12.0,0.,12.0
1979-08-07 19:43:27.970 ,4,0,0.,12.0,0.,12.0,0.,12.0,0.,12.0
1979-08-07 19:43:39.970 ,4,0,0.,12.0,0.,12.0,0.,12.0,0.,12.0
1979-08-07 19:43:51.970 ,4,0,0.,12.0,0.,12.0,0.,12.0,0.,12.0
1979-08-07 19:44:03.970 ,3,0,0.,12.0,0.,12.0,0.,12.0,0.,12.0
1979-08-07 19:44:15.970 ,3,0,0.,12.0,0.,12.0,0.,12.0,0.,12.0
1979-08-07 19:44:27.970 ,3,0,0.,12.0,0.,12.0,0.,12.0,0.,12.0
1979-08-07 19:44:39.970 ,3,0,0.,12.0,0.,12.0,0.,12.0,0.,12.0
1979-08-07 19:44:51.970 ,2,0,0.,12.0,0.,12.0,0.,12.0,0.,12.0
1979-08-07 19:45:03.970 ,2,0,0.,12.0,0.,12.0,0.,12.0,0.,12.0
1979-08-07 19:45:15.970 ,2,0,0.,12.0,0.,12.0,0.,12.0,0.,12.0
1979-08-07 19:45:27.970 ,2,0,0.,12.0,0.,12.0,0.,12.0,0.,12.0
1979-08-07 19:45:39.970 ,1,0,0.,12.0,0.,12.0,0.,12.0,0.,12.0
1979-08-07 19:45:51.970 ,1,0,0.,12.0,0.,12.0,0.,12.0,0.,12.0
1979-08-07 19:46:03.970 ,1,0,0.,12.0,0.,12.0,0.,12.0,0.,12.0
1979-08-07 19:46:15.970 ,1,0,0.,12.0,0.,12.0,0.,12.0,0.,12.0
1979-08-07 19:46:27.970 ,0,0,0.,12.0,0.,12.0,0.,12.0,0.,12.0
1979-08-07 19:46:39.970 ,0,0,0.,12.0,0.,12.0,0.,12.0,0.,12.0
1979-08-07 19:46:51.970 ,0,0,0.,12.0,0.,12.0,0.,12.0,0.,12.0
1979-08-07 19:47:03.970 ,0,0,0.,12.0,0.,12.0,0.,12.0,0.,12.0
1979-08-07 19:47:15.970 ,0,0,1.,12.0,0.,12.0,0.,12.0,0.,12.0
1979-08-07 19:47:27.970 ,0,0,0.,12.0,0.,12.0,0.,12.0,0.,12.0
1979-08-07 19:47:39.970 ,0,0,0.,12.0,0.,12.0,0.,12.0,0.,12.0
1979-08-07 19:47:51.970 ,0,0,0.,12.0,0.,12.0,0.,12.0,0.,12.0
1979-08-07 19:48:03.970 ,1,0,0.,12.0,0.,12.0,0.,12.0,0.,12.0
1979-08-07 19:48:15.970 ,1,0,0.,12.0,0.,12.0,0.,12.0,0.,12.0
1979-08-07 19:48:27.970 ,1,0,0.,12.0,0.,12.0,0.,12.0,0.,12.0
1979-08-07 19:48:39.970 ,1,0,0.,12.0,0.,12.0,0.,12.0,0.,12.0
1979-08-07 19:48:51.970 ,2,0,0.,12.0,0.,12.0,0.,12.0,0.,12.0
1979-08-07 19:49:03.970 ,2,0,0.,12.0,0.,12.0,0.,12.0,0.,12.0
1979-08-07 19:49:15.970 ,2,0,0.,12.0,0.,12.0,0.,12.0,0.,12.0